EDT,Max TemperatureF,Mean TemperatureF,Min TemperatureF,Max Dew PointF,MeanDew PointF,Min DewpointF,Max Humidity, Mean Humidity, Min Humidity, Max Sea Level PressureIn, Mean Sea Level PressureIn, Min Sea Level PressureIn, Max VisibilityMiles, Mean VisibilityMiles, Min VisibilityMiles, Max Wind SpeedMPH, Mean Wind SpeedMPH, Max Gust SpeedMPH,PrecipitationIn, CloudCover, Events, WindDirDegrees
2013-5-1,78,66,53,57,52,48,88,63,39,30.24,30.19,30.10,10,10,10,12,6,17,0.00,0,,115
2013-5-2,73,64,55,54,50,46,77,59,46,30.28,30.21,30.14,10,10,10,13,8,18,0.00,1,,132
2013-5-3,75,67,59,52,43,32,77,48,22,30.15,30.10,30.03,10,10,10,18,8,24,0.00,1,,133
2013-5-4,69,61,53,45,40,36,67,46,35,30.10,30.06,30.00,10,10,10,18,11,25,0.00,0,,120
2013-5-5,71,60,48,43,37,32,82,44,27,30.05,30.01,29.95,10,10,10,14,8,20,0.00,0,,100
2013-5-6,68,60,53,54,45,30,88,62,31,30.02,29.99,29.96,10,10,7,12,7,,0.02,6,Rain,99
2013-5-7,71,61,51,55,53,50,94,74,53,30.00,29.98,29.95,10,10,10,16,6,21,0.00,5,Rain,58
2013-5-8,69,61,53,54,51,46,88,68,43,30.01,29.97,29.94,10,10,7,13,4,16,0.00,5,Rain-Thunderstorm,31
2013-5-9,80,65,50,54,48,41,100,60,24,30.02,29.98,29.95,10,10,7,9,3,18,0.00,3,,258
2013-5-10,69,63,57,61,58,54,94,85,68,29.98,29.87,29.80,10,9,5,20,7,34,0.58,6,Rain-Thunderstorm,204
2013-5-11,60,51,42,57,45,37,100,86,67,29.96,29.88,29.82,10,7,2,18,8,33,0.05,8,Rain,300
2013-5-12,50,42,35,36,32,28,93,68,50,30.12,30.03,29.97,10,10,10,20,9,28,0.00,3,,289
2013-5-13,53,43,33,34,31,27,93,64,35,30.19,30.14,30.10,10,10,10,12,2,17,0.00,5,,298
2013-5-14,75,56,37,54,40,32,87,57,35,30.15,29.99,29.82,10,10,10,18,6,29,0.00,3,,183
2013-5-15,87,76,64,59,54,52,73,52,31,29.83,29.81,29.78,10,10,7,21,9,29,0.00,2,Rain-Thunderstorm,238
2013-5-16,78,69,60,61,51,39,94,56,24,29.99,29.92,29.82,10,10,7,13,5,17,0.01,2,Rain-Thunderstorm,284
2013-5-17,80,66,53,63,56,46,100,74,30,30.11,30.06,30.00,10,6,0,9,3,,0.00,3,Fog,152
2013-5-18,78,68,59,61,55,48,88,68,44,30.12,30.07,30.01,10,10,10,8,4,,0.04,4,Rain,94
2013-5-19,80,70,59,63,60,55,94,71,51,30.04,30.00,29.94,10,10,7,12,5,,0.00,2,,140
2013-5-20,87,74,62,68,63,61,100,71,40,30.02,29.96,29.90,10,8,3,17,6,25,0.00,2,,182
2013-5-21,87,78,69,64,60,54,83,59,31,29.94,29.88,29.82,10,10,7,18,9,28,0.00,1,,202
2013-5-22,82,73,62,64,59,55,94,67,39,29.85,29.81,29.74,10,10,5,30,10,54,0.06,4,Rain,203
2013-5-23,71,58,44,61,55,43,94,82,56,30.07,29.87,29.79,10,9,2,25,9,30,0.37,7,Rain,261
2013-5-24,55,48,41,43,37,34,93,68,44,30.33,30.25,30.08,10,10,10,20,12,25,0.00,4,,351
2013-5-25,62,48,35,41,37,32,100,65,37,30.40,30.33,30.26,10,9,4,10,3,16,0.00,1,,17
2013-5-26,68,54,39,41,34,28,93,51,24,30.35,30.29,30.23,10,10,10,10,2,,0.00,0,,31
2013-5-27,64,57,50,52,43,34,82,62,47,30.27,30.16,30.01,10,10,7,16,6,22,0.04,4,Rain,120
2013-5-28,82,70,59,64,58,52,94,64,42,30.04,29.99,29.95,10,10,3,20,9,29,0.08,4,Rain-Thunderstorm,195
2013-5-29,87,76,64,59,55,46,73,50,24,30.09,30.05,30.00,10,10,10,17,10,24,0.00,1,,218
2013-5-30,87,76,64,63,60,55,88,57,35,30.17,30.11,30.04,10,10,10,16,7,23,0.00,1,,184
2013-5-31,86,75,64,66,61,59,94,68,43,30.09,30.04,29.97,10,10,5,22,8,32,0.14,3,Rain-Thunderstorm,195